STARLINK-1129 (45046 NORAD) Tracking and Keplerian Element Data

This shows tracking and keplerian element data for the satellite.

Feedback or suggestion? Click here.




ElementValue
Catalog45046
NameSTARLINK-1129
Epoch Orbit323
Epoch Day47.91667824
Epoch Year2020
RAAN145.2458
Inclination52.9998
Eccentricity0.0001178
Argument of Perigee65.7653
Mean Anonmoly110.5222
Mean Motion15.58902384
Decay Rate0.00289304
L11 45046U 20006C 20047.91667824 .00289304 00000-0 35400-2 0 9993
L22 45046 52.9998 145.2458 0001178 65.7653 110.5222 15.58902384 3237

Live tracking and technical data element details for STARLINK-1129 (NORAD 45046). STARLINK-1129 can be tracked NOW for your location showing map with azimuth and elevation plus other details from your city location.

Track the satellite on the map from your city or location and see movement details for azimuth, elevation, latitude, longitude, range, height, and movement on the map or in text.







IsCatalogInMostPopularTable: catalog: 45046, numindb: -1

Insert: records affected: 1


GetName: 45046 STARLINK-1129

Hit Count: inserted at: Tue, 18 Feb 2020 00:09:58 GMT